Location: ??????
(38.1303°N, 24.0039°E)
Time: 11:57:13
(UTC+00:00)

Cosmos 2084 Rocket - Pass Details

Date: 20 June 2021
Orbit: 517 x 662 km, 62.8° (Epoch: 03 August)

Event Time Altitude Azimuth Distance (km) Brightness Sun altitude
Exits shadow 02:15:38 11° 237° (WSW) 1,706 5.1 -8.2°
Maximum altitude 02:19:14 41° 308° (NW) 763 3.9 -7.6°
Drops below altitude 10° 02:22:59 10° 20° (NNE) 1,772 6.9 -7.0°
Sets 02:25:18 0° 28° (NNE) 2,680 8.2 -6.7°
